Miscellaneous Local Product
Issued by NWS North Platte, NE

Home | Current Version | Previous Version | Text Only | Print | Product List | Glossary On
Versions: 1 2 3 4 5 6 7 8 9 10 11 12 13 14 15 16 17 18 19 20 21 22 23 24 25 26 27 28 29 30 31 32 33 34 35 36 37 38 39 40 41 42 43 44 45 46 47 48 49 50
000
AXUS43 KLBF 032310
MISLBF


WESTERN AND NORTH CENTRAL NEBRASKA HOURLY WEATHER ROUNDUP
NATIONAL WEATHER SERVICE NORTH PLATTE NE
600 PM CDT MON AUG 03 2015

***STATIONS NOT REPORTING VARIABLES SUCH AS SKY/WEATHER OR
PRESSURE ARE PROVIDED BY THE NEBRASKA DEPARTMENT OF
ROADS...RAWS...AND APRS NETWORKS...AND ARE NOT UNDER
NATIONAL WEATHER SERVICE QUALITY CONTROL***

...OBSERVATIONS IN AND NEAR THE EASTERN PANHANDLE OF NEBRASKA...

CITY           SKY/WX    TMP DP  RH WIND       PRES   REMARKS
PINE RIDGE     PTSUNNY   88  62  41 E12       29.93F
CHADRON        CLOUDY    90  60  36 SE6       29.90F
ALLIANCE       PTSUNNY   86  61  42 SE13      29.96F
SIDNEY         CLOUDY    87  51  28 S16       30.01F
BIG SPRINGS      N/A     84  66  54 S8          N/A
$$

...OBSERVATIONS IN NORTH CENTRAL NEBRASKA...

CITY           SKY/WX    TMP DP  RH WIND       PRES   REMARKS
THEDFORD       PTSUNNY   85  62  45 SE12      29.97F
AINSWORTH      PTSUNNY   81  61  51 E10G17    29.98F
O`NEILL        PTSUNNY   82  61  48 SE6       29.98S
ORD            PTSUNNY   80  62  54 E9        29.95F
BROKEN BOW     PTSUNNY   86  63  45 SE10G20   29.96F
SPRINGVIEW       N/A     82  62  50 SE7         N/A
CHAMBERS         N/A     82  57  42 E5          N/A
EWING            N/A     81  66  60 CALM        N/A
$$

...OBSERVATIONS IN SOUTHWEST NEBRASKA AND FAR NORTHEAST COLORADO...

CITY           SKY/WX    TMP DP  RH WIND       PRES   REMARKS
WRAY           FAIR      89  50  25 SE10      29.98F
HOLYOKE        FAIR      88  61  40 SE7       29.98F
IMPERIAL       CLOUDY    88  65  46 E10       29.95F HX  90
OGALLALA       CLOUDY    85  66  52 SE9       29.97F
NORTH PLATTE   PTSUNNY   82  69  64 E13       29.95F
MCCOOK         PTSUNNY   86  69  56 E16       29.93F HX  90
LEXINGTON      PTSUNNY   84  70  61 SE8       29.96S
PAXTON           N/A     83  70  65 SE6         N/A
BRADY            N/A     82  71  69 CALM        N/A
CALLAWAY         N/A     84  73  69 S9          N/A  HX  90
$$

...NORTH PLATTE AREA...

CITY           SKY/WX    TMP DP  RH WIND       PRES   REMARKS
AIRPORT        PTSUNNY   82  69  64 E13       29.95F
DOWNTOWN         N/A     83  71  66 MISG        N/A
HILLCREST        N/A     82  69  64 SE15        N/A
$$

...SOME WEATHER OBSERVATIONS FROM AROUND THE REGION...

CITY           SKY/WX    TMP DP  RH WIND       PRES   REMARKS
DENVER         PTSUNNY   80  49  33 S15       30.08R
LARAMIE        CLOUDY    76  40  27 S12       30.17F
CHEYENNE       CLOUDY    80  39  23 S16       30.12S
SCOTTSBLUFF    PTSUNNY   88  63  43 E12       29.94F
RAPID CITY     PTSUNNY   81  61  50 SE10      29.95F
PIERRE         SUNNY     86  53  32 VRB7      29.93F
WINNER         FAIR      86  56  35 E13       29.95F
SIOUX FALLS    MOSUNNY   82  58  43 CALM      29.95F
OMAHA          PTSUNNY   82  62  50 N6        29.94F
GRAND ISLAND   PTSUNNY   80  64  58 E9        29.96F
KANSAS CITY    MOSUNNY   85  69  58 E9        29.91F
WICHITA        PTSUNNY   91  69  48 S12       29.90F HX  96
HAYS           MOSUNNY   91  61  35 SE10      29.90F HX  91
LIBERAL        MOSUNNY   88  63  42 SE13      29.93S
GOODLAND       CLOUDY    86  61  42 SE15G22   29.98F
$$



USA.gov is the U.S. government's official web portal to all federal, state and local government web resources and services.